DW5735 Weather Reports


Display with metric or nautical units.
time (UTC)temp
F
wind
direction
speed
MPH
gust
MPH
rain 1hr
in
rain 24hr
in
rain mn
in
humidity
%
barometer
mb
20260507010825 76 238 19.0 26.0 0.00 0.00 0.00 36 1006.3
20260507010326 75 246 11.0 18.0 0.00 0.00 0.00 39 1006.4
20260507005828 75 253 12.0 18.0 0.00 0.00 0.00 39 1006.3
20260507005320 76 232 7.0 11.0 0.00 0.00 0.00 40 1006.3
20260507004822 76 250 7.0 12.0 0.00 0.00 0.00 37 1006.3
20260507004609 76 225 5.0 12.0 0.00 0.00 0.00 36 1005.2
20260507004330 75 217 6.0 12.0 0.00 0.00 0.00 38 1006.3
20260507003828 73 239 4.0 7.0 0.00 0.00 0.00 45 1006.2
20260507003326 72 250 7.0 10.0 0.00 0.00 0.00 45 1006.4
20260507003101 72 246 4.0 11.0 0.00 0.00 0.00 49 1005.2
20260507002841 73 246 6.0 12.0 0.00 0.00 0.00 47 1006.3
20260507002341 73 261 10.0 14.0 0.00 0.00 0.00 43 1006.2
20260507001838 73 259 8.0 15.0 0.00 0.00 0.00 46 1006.3
20260507001614 74 260 12.0 15.0 0.00 0.00 0.00 43 1005.2
20260507001330 77 248 10.0 15.0 0.00 0.00 0.00 40 1006.2
20260507000833 78 228 10.0 18.0 0.00 0.00 0.00 31 1006.2
20260507000337 77 232 10.0 18.0 0.00 0.00 0.00 38 1006.2
20260507000104 77 208 11.0 18.0 0.00 0.00 0.00 35 1005.2
20260506235851 77 235 10.0 15.0 0.00 0.00 0.00 35 1006.2
20260506235319 74 236 3.0 8.0 0.00 0.00 0.00 46 1006.2
20260506234841 78 259 7.0 9.0 0.00 0.00 0.00 36 1006.3
20260506234639 78 249 5.0 10.0 0.00 0.00 0.00 34 1005.3
20260506234318 78 214 6.0 10.0 0.00 0.00 0.00 34 1006.3
20260506233818 77 235 6.0 13.0 0.00 0.00 0.00 35 1006.3
20260506233321 76 207 5.0 13.0 0.00 0.00 0.00 41 1006.3
20260506233112 75 193 8.0 13.0 0.00 0.00 0.00 45 1005.2
20260506232856 77 284 7.0 12.0 0.00 0.00 0.00 41 1006.3
20260506232329 76 232 6.0 12.0 0.00 0.00 0.00 43 1006.3
20260506231823 79 221 7.0 10.0 0.00 0.00 0.00 33 1006.3
20260506231601 79 221 2.0 6.0 0.00 0.00 0.00 33 1005.3
20260506231333 79 210 1.0 5.0 0.00 0.00 0.00 34 1006.4
20260506230820 75 174 3.0 5.0 0.00 0.00 0.00 39 1006.4
20260506230339 72 228 2.0 6.0 0.00 0.00 0.00 53 1006.5
20260506230105 72 257 1.0 6.0 0.00 0.00 0.00 55 1005.6
20260506225847 73 235 5.0 6.0 0.00 0.00 0.00 46 1006.7
20260506225322 74 268 2.0 5.0 0.00 0.00 0.00 42 1006.6
20260506224824 74 229 2.0 5.0 0.00 0.00 0.00 53 1006.8
20260506224320 77 224 0.0 4.0 0.00 0.00 0.00 41 1006.9
20260506223831 75 226 2.0 5.0 0.00 0.00 0.00 42 1006.9
20260506223332 74 226 4.0 5.0 0.00 0.00 0.00 47 1007.1
20260506223054 74 224 3.0 5.0 0.00 0.00 0.00 47 1006.1
20260506222838 74 245 2.0 4.0 0.00 0.00 0.00 44 1007.2
20260506222322 73 211 2.0 5.0 0.00 0.00 0.00 46 1007.4
20260506221834 73 226 4.0 5.0 0.00 0.00 0.00 51 1007.4
20260506221513 73 242 2.0 4.0 0.00 0.00 0.00 45 1006.4
20260506221334 73 240 3.0 4.0 0.00 0.00 0.00 47 1007.5
20260506220830 75 232 2.0 4.0 0.00 0.00 0.00 46 1007.6
20260506220340 75 231 3.0 4.0 0.00 0.00 0.00 46 1007.6
20260506220108 74 215 2.0 4.0 0.00 0.00 0.00 45 1006.6
20260506215834 75 226 3.0 4.0 0.00 0.00 0.00 44 1007.6
20260506215319 76 239 0.0 1.0 0.00 0.00 0.00 39 1007.8
20260506214855 76 242 0.0 2.0 0.00 0.00 0.00 40 1007.9
20260506214608 75 235 0.0 2.0 0.00 0.00 0.00 40 1007.0
20260506214319 75 236 1.0 3.0 0.00 0.00 0.00 41 1008.1
20260506213829 75 247 1.0 4.0 0.00 0.00 0.00 43 1008.1
20260506213331 74 226 2.0 3.0 0.00 0.00 0.00 45 1008.2
20260506213003 73 214 1.0 2.0 0.00 0.00 0.00 46 1007.3
20260506212827 73 240 1.0 3.0 0.00 0.00 0.00 45 1008.3
20260506212328 73 248 1.0 4.0 0.00 0.00 0.00 47 1008.3
20260506211832 73 253 3.0 4.0 0.00 0.00 0.00 47 1008.4
20260506211516 72 238 3.0 4.0 0.00 0.00 0.00 45 1007.6
20260506211335 72 221 3.0 4.0 0.00 0.00 0.00 46 1008.5
20260506210839 73 233 1.0 3.0 0.00 0.00 0.00 47 1008.5
20260506210330 72 232 1.0 4.0 0.00 0.00 0.00 46 1008.6
20260506210119 71 229 0.0 4.0 0.00 0.00 0.00 48 1007.7
20260506205825 72 226 1.0 5.0 0.00 0.00 0.00 48 1008.7
20260506205318 72 221 1.0 5.0 0.00 0.00 0.00 45 1008.7
20260506204824 74 231 0.0 5.0 0.00 0.00 0.00 42 1008.8
20260506204555 74 210 0.0 0.0 0.00 0.00 0.00 39 1007.9
20260506204343 74 246 0.0 0.0 0.00 0.00 0.00 39 1008.8
20260506203828 74 246 0.0 0.0 0.00 0.00 0.00 39 1008.8
20260506203333 74 246 0.0 0.0 0.00 0.00 0.00 39 1008.9
20260506202831 72 245 0.0 0.0 0.00 0.00 0.00 40 1008.9
20260506202338 71 245 0.0 0.0 0.00 0.00 0.00 41 1009.0
20260506201829 70 218 0.0 0.0 0.00 0.00 0.00 43 1009.1
20260506201557 69 267 0.0 0.0 0.00 0.00 0.00 42 1008.2
20260506201336 69 266 0.0 0.0 0.00 0.00 0.00 43 1009.2
20260506200835 69 226 0.0 0.0 0.00 0.00 0.00 42 1009.2
20260506200343 70 271 0.0 0.0 0.00 0.00 0.00 39 1009.4
20260506195820 70 269 0.0 0.0 0.00 0.00 0.00 41 1009.5
20260506195329 69 269 0.0 0.0 0.00 0.00 0.00 42 1009.5
20260506194825 68 261 0.0 0.0 0.00 0.00 0.00 43 1009.6
20260506194555 67 261 0.0 0.0 0.00 0.00 0.00 43 1008.7
20260506194323 67 264 0.0 0.0 0.00 0.00 0.00 42 1009.7
20260506193832 68 256 0.0 0.0 0.00 0.00 0.00 42 1009.8
20260506193333 68 239 0.0 0.0 0.00 0.00 0.00 42 1009.8
20260506193107 67 232 0.0 0.0 0.00 0.00 0.00 42 1008.9
20260506192827 67 232 0.0 0.0 0.00 0.00 0.00 44 1009.9
20260506192323 66 241 0.0 0.0 0.00 0.00 0.00 44 1010.0
20260506191823 66 239 0.0 0.0 0.00 0.00 0.00 44 1010.0
20260506191606 65 246 0.0 0.0 0.00 0.00 0.00 44 1009.2
20260506191319 65 241 0.0 0.0 0.00 0.00 0.00 43 1010.2
20260506190822 64 216 0.0 0.0 0.00 0.00 0.00 46 1010.3
20260506190336 64 256 0.0 0.0 0.00 0.00 0.00 47 1010.3
20260506190108 64 264 0.0 0.0 0.00 0.00 0.00 47 1009.3
20260506185848 63 219 0.0 0.0 0.00 0.00 0.00 51 1010.3
20260506185336 62 238 0.0 0.0 0.00 0.00 0.00 63 1010.4
20260506184832 62 251 0.0 0.0 0.00 0.00 0.00 54 1010.4
20260506184513 62 239 0.0 0.0 0.00 0.00 0.00 63 1009.5
20260506184335 62 246 0.0 0.0 0.00 0.00 0.00 63 1010.4
20260506183830 63 221 0.0 0.0 0.00 0.00 0.00 57 1010.5
20260506183336 63 235 0.0 1.0 0.00 0.00 0.00 49 1010.6
20260506183112 62 232 0.0 3.0 0.00 0.00 0.00 50 1009.7
20260506182907 62 232 0.0 3.0 0.00 0.00 0.00 51 1010.7
20260506182323 62 235 1.0 4.0 0.00 0.00 0.00 62 1010.7
20260506181832 62 246 0.0 3.0 0.00 0.00 0.00 54 1010.8
20260506181604 62 225 0.0 3.0 0.00 0.00 0.00 56 1010.0
20260506181352 63 231 1.0 4.0 0.00 0.00 0.00 54 1010.9
20260506180824 62 236 0.0 4.0 0.00 0.00 0.00 51 1010.9
20260506180335 62 238 1.0 5.0 0.00 0.00 0.00 45 1011.1
20260506180104 62 242 0.0 5.0 0.00 0.00 0.00 51 1010.1
20260506174824 62 208 0.0 4.0 0.00 0.00 0.00 54 1011.0
20260506174614 63 250 2.0 4.0 0.00 0.00 0.00 57 1010.3
20260506174332 64 235 0.0 1.0 0.00 0.00 0.00 51 1011.1
20260506173827 66 267 0.0 0.0 0.00 0.00 0.00 44 1011.3
20260506173319 65 249 0.0 0.0 0.00 0.00 0.00 45 1011.3
20260506173100 63 249 0.0 0.0 0.00 0.00 0.00 46 1010.4
20260506172819 63 249 0.0 0.0 0.00 0.00 0.00 47 1011.4
20260506172347 62 246 0.0 0.0 0.00 0.00 0.00 47 1011.5
20260506171820 61 242 0.0 0.0 0.00 0.00 0.00 48 1011.6
20260506171611 60 236 0.0 0.0 0.00 0.00 0.00 48 1010.8
20260506171344 60 219 0.0 0.0 0.00 0.00 0.00 49 1011.7
20260506170822 59 232 0.0 0.0 0.00 0.00 0.00 52 1011.7
20260506170320 58 232 0.0 3.0 0.00 0.00 0.00 61 1011.8
20260506170105 58 246 0.0 3.0 0.00 0.00 0.00 61 1010.9
20260506165817 58 225 0.0 3.0 0.00 0.00 0.00 58 1011.7
20260506165322 58 248 0.0 3.0 0.00 0.00 0.00 63 1011.8
20260506164852 58 243 0.0 3.0 0.00 0.00 0.00 61 1011.9
20260506164609 57 236 0.0 1.0 0.00 0.00 0.00 68 1011.0
20260506164321 57 229 0.0 1.0 0.00 0.00 0.00 72 1011.9
20260506163835 57 242 0.0 3.0 0.00 0.00 0.00 69 1012.0
20260506163138 57 246 0.0 3.0 0.00 0.00 0.00 65 1011.1
20260506162844 57 219 1.0 3.0 0.00 0.00 0.00 63 1012.0
20260506162320 57 239 0.0 0.0 0.00 0.00 0.00 62 1012.1
20260506161829 57 224 0.0 0.0 0.00 0.00 0.00 69 1012.1
20260506161559 56 246 0.0 0.0 0.00 0.00 0.00 68 1011.2
20260506161335 57 243 0.0 0.0 0.00 0.00 0.00 65 1012.0
20260506160837 57 243 0.0 2.0 0.00 0.00 0.00 67 1012.2
20260506160339 57 222 0.0 2.0 0.00 0.00 0.00 63 1012.2
20260506160114 56 232 0.0 2.0 0.00 0.00 0.00 66 1011.3
20260506155822 57 253 0.0 1.0 0.00 0.00 0.00 67 1012.2
20260506155336 57 231 0.0 0.0 0.00 0.00 0.00 66 1012.2
20260506154835 57 235 0.0 0.0 0.00 0.00 0.00 64 1012.3
20260506154600 56 239 0.0 0.0 0.00 0.00 0.00 63 1011.5
20260506154321 56 246 0.0 0.0 0.00 0.00 0.00 63 1012.4
20260506153852 56 238 0.0 0.0 0.00 0.00 0.00 67 1012.4
20260506153323 56 246 0.0 0.0 0.00 0.00 0.00 65 1012.5
20260506153136 55 219 0.0 0.0 0.00 0.00 0.00 67 1011.6
20260506152900 56 239 0.0 0.0 0.00 0.00 0.00 67 1012.5
20260506152332 55 242 0.0 1.0 0.00 0.00 0.00 69 1012.5
20260506151823 55 241 0.0 3.0 0.00 0.00 0.00 70 1012.6
20260506151556 55 246 0.0 3.0 0.00 0.00 0.00 69 1011.8
20260506151334 56 243 2.0 3.0 0.00 0.00 0.00 70 1012.7
20260506150825 56 242 0.0 3.0 0.00 0.00 0.00 67 1012.6
20260506150337 57 232 0.0 3.0 0.00 0.00 0.00 65 1012.6
20260506145838 57 340 0.0 0.0 0.00 0.00 0.00 61 1012.7
20260506145320 57 15 0.0 0.0 0.00 0.00 0.00 60 1012.6
20260506144857 56 9 0.0 0.0 0.00 0.00 0.00 60 1012.6
20260506144508 56 26 0.0 0.0 0.00 0.00 0.00 61 1011.8
20260506144318 56 27 0.0 0.0 0.00 0.00 0.00 60 1012.6
20260506143820 55 27 0.0 0.0 0.00 0.00 0.00 62 1012.6
20260506143330 55 31 0.0 0.0 0.00 0.00 0.00 63 1012.7
20260506143111 54 50 0.0 0.0 0.00 0.00 0.00 66 1011.9
20260506142821 55 27 0.0 0.0 0.00 0.00 0.00 67 1012.7
20260506142346 55 34 0.0 0.0 0.00 0.00 0.00 63 1012.7
20260506141838 54 34 0.0 0.0 0.00 0.00 0.00 66 1012.8
20260506141608 53 36 0.0 0.0 0.00 0.00 0.00 67 1012.0
20260506141319 54 27 0.0 0.0 0.00 0.00 0.00 64 1012.9
20260506140838 55 29 0.0 0.0 0.00 0.00 0.00 63 1012.9
20260506140348 55 40 0.0 0.0 0.00 0.00 0.00 59 1012.9
20260506140059 55 40 0.0 0.0 0.00 0.00 0.00 59 1012.1
20260506135836 56 42 0.0 0.0 0.00 0.00 0.00 57 1012.8
20260506135340 57 142 0.0 0.0 0.00 0.00 0.00 58 1012.7
20260506134833 56 231 0.0 0.0 0.00 0.00 0.00 60 1012.8
20260506134604 55 231 0.0 0.0 0.00 0.00 0.00 61 1012.0
20260506134351 55 231 0.0 0.0 0.00 0.00 0.00 62 1012.7
20260506133820 54 232 0.0 0.0 0.00 0.00 0.00 65 1012.7
20260506133346 54 233 0.0 0.0 0.00 0.00 0.00 63 1012.6
20260506133112 54 262 0.0 0.0 0.00 0.00 0.00 61 1011.8
20260506132830 55 236 0.0 0.0 0.00 0.00 0.00 59 1012.5
20260506132349 54 64 0.0 0.0 0.00 0.00 0.00 59 1012.4
20260506131854 53 84 0.0 0.0 0.00 0.00 0.00 60 1012.4
20260506131608 52 80 0.0 0.0 0.00 0.00 0.00 61 1011.5
20260506131328 52 60 0.0 0.0 0.00 0.00 0.00 61 1012.3
20260506130826 52 89 0.0 0.0 0.00 0.00 0.00 62 1012.3
20260506130324 52 89 0.0 0.0 0.00 0.00 0.00 64 1012.2
20260506130056 52 89 0.0 0.0 0.00 0.00 0.00 64 1011.4
20260506125830 52 89 0.0 0.0 0.00 0.00 0.00 61 1012.2
20260506125356 51 89 0.0 0.0 0.00 0.00 0.00 61 1012.2
20260506124838 51 80 0.0 0.0 0.00 0.00 0.00 61 1012.2
20260506124612 51 80 0.0 0.0 0.00 0.00 0.00 62 1011.3
20260506124318 51 79 0.0 0.0 0.00 0.00 0.00 64 1012.2
20260506123822 51 79 0.0 0.0 0.00 0.00 0.00 63 1012.1
20260506123330 52 66 0.0 0.0 0.00 0.00 0.00 64 1012.0
20260506123114 52 43 0.0 0.0 0.00 0.00 0.00 64 1011.1
20260506122829 53 75 0.0 0.0 0.00 0.00 0.00 60 1012.0
20260506122327 53 76 0.0 0.0 0.00 0.00 0.00 57 1012.0
20260506121858 53 70 0.0 0.0 0.00 0.00 0.00 58 1011.9
20260506121615 52 60 0.0 0.0 0.00 0.00 0.00 59 1011.0
20260506121319 53 46 0.0 0.0 0.00 0.00 0.00 59 1011.9
20260506120839 53 37 0.0 0.0 0.00 0.00 0.00 59 1011.8
20260506120325 53 37 0.0 0.0 0.00 0.00 0.00 60 1011.8
20260506120101 53 52 0.0 0.0 0.00 0.00 0.00 59 1011.0
20260506115832 53 86 0.0 0.0 0.00 0.00 0.00 59 1011.8
20260506115339 53 84 0.0 0.0 0.00 0.00 0.00 59 1011.9
20260506114856 53 90 0.0 0.0 0.00 0.00 0.00 61 1011.8
20260506114600 52 47 0.0 0.0 0.00 0.00 0.00 65 1011.0
20260506114322 53 25 0.0 0.0 0.00 0.00 0.00 58 1011.8
20260506113852 54 23 0.0 0.0 0.00 0.00 0.00 60 1011.7
20260506113341 54 88 0.0 0.0 0.00 0.00 0.00 56 1011.7
20260506113101 54 40 0.0 0.0 0.00 0.00 0.00 55 1010.9
20260506112851 54 91 0.0 0.0 0.00 0.00 0.00 54 1011.8
20260506112334 54 91 0.0 0.0 0.00 0.00 0.00 54 1011.8
20260506111830 54 56 0.0 0.0 0.00 0.00 0.00 54 1011.8
20260506111555 54 56 0.0 0.0 0.00 0.00 0.00 54 1010.9
20260506111357 55 56 0.0 2.0 0.00 0.00 0.00 54 1011.7
20260506110846 55 79 0.0 3.0 0.00 0.00 0.00 54 1011.7
20260506110347 55 96 0.0 3.0 0.00 0.00 0.00 54 1011.6
20260506110106 54 105 0.0 0.0 0.00 0.00 0.00 54 1010.8
20260506105856 55 93 0.0 0.0 0.00 0.00 0.00 53 1011.6
20260506105331 55 85 0.0 0.0 0.00 0.00 0.00 53 1011.4
20260506104835 55 84 0.0 0.0 0.00 0.00 0.00 53 1011.4
20260506104609 54 89 0.0 0.0 0.00 0.00 0.00 53 1010.6
20260506104320 55 72 0.0 0.0 0.00 0.00 0.00 53 1011.4
20260506103822 55 43 0.0 0.0 0.00 0.00 0.00 53 1011.4
20260506103339 56 82 0.0 0.0 0.00 0.00 0.00 51 1011.3
20260506103104 55 89 0.0 0.0 0.00 0.00 0.00 51 1010.5
20260506102831 56 89 0.0 0.0 0.00 0.00 0.00 52 1011.4
20260506102319 55 96 0.0 0.0 0.00 0.00 0.00 52 1011.3
20260506101826 54 94 0.0 0.0 0.00 0.00 0.00 54 1011.4
20260506101637 54 91 0.0 0.0 0.00 0.00 0.00 55 1010.5
20260506101321 54 85 0.0 0.0 0.00 0.00 0.00 54 1011.3
20260506100840 54 86 0.0 0.0 0.00 0.00 0.00 56 1011.2
20260506100349 54 84 0.0 0.0 0.00 0.00 0.00 55 1011.2
20260506100003 54 85 0.0 0.0 0.00 0.00 0.00 55 1010.3
20260506095826 55 84 0.0 0.0 0.00 0.00 0.00 55 1011.0
20260506095341 54 280 0.0 0.0 0.00 0.00 0.00 56 1011.1
20260506094849 55 280 0.0 0.0 0.00 0.00 0.00 61 1011.0
20260506094608 54 279 0.0 0.0 0.00 0.00 0.00 59 1010.1
20260506094345 55 99 0.0 0.0 0.00 0.00 0.00 54 1010.9
20260506093818 55 103 0.0 0.0 0.00 0.00 0.00 55 1010.9
20260506093336 55 103 0.0 0.0 0.00 0.00 0.00 55 1010.9
20260506092826 56 120 0.0 0.0 0.00 0.00 0.00 57 1010.8
20260506092317 56 150 0.0 0.0 0.00 0.00 0.00 59 1010.8
20260506091846 56 228 0.0 0.0 0.00 0.00 0.00 59 1010.8
20260506091602 56 228 0.0 0.0 0.00 0.00 0.00 59 1010.0
20260506091342 56 219 0.0 0.0 0.00 0.00 0.00 54 1010.8
20260506090820 57 111 0.0 0.0 0.00 0.00 0.00 50 1010.8
20260506090324 57 91 0.0 0.0 0.00 0.00 0.00 51 1010.8
20260506090112 57 98 0.0 0.0 0.00 0.00 0.00 54 1010.0
20260506085830 57 116 0.0 0.0 0.00 0.00 0.00 49 1010.8
20260506085347 57 77 0.0 0.0 0.00 0.00 0.00 50 1010.7
20260506084823 56 98 0.0 0.0 0.00 0.00 0.00 52 1010.8
20260506084634 56 97 0.0 0.0 0.00 0.00 0.00 53 1009.9
20260506084337 57 101 0.0 0.0 0.00 0.00 0.00 52 1010.8
20260506083846 57 99 0.0 0.0 0.00 0.00 0.00 55 1010.8
20260506083327 57 94 0.0 0.0 0.00 0.00 0.00 57 1010.8
20260506083104 57 277 0.0 0.0 0.00 0.00 0.00 61 1010.0
20260506082822 58 282 0.0 0.0 0.00 0.00 0.00 51 1010.8
20260506082327 58 112 0.0 0.0 0.00 0.00 0.00 48 1010.8
20260506081820 58 103 0.0 0.0 0.00 0.00 0.00 49 1010.7
20260506081501 57 49 0.0 0.0 0.00 0.00 0.00 50 1009.9
20260506081326 58 47 0.0 0.0 0.00 0.00 0.00 49 1010.7
20260506080829 57 86 0.0 0.0 0.00 0.00 0.00 51 1010.6
20260506080324 57 108 0.0 0.0 0.00 0.00 0.00 52 1010.6
20260506080107 56 93 0.0 0.0 0.00 0.00 0.00 52 1009.8
20260506073337 58 125 0.0 0.0 0.00 0.00 0.00 51 1010.6
20260506073108 57 215 0.0 0.0 0.00 0.00 0.00 51 1009.7
20260506072825 58 215 0.0 0.0 0.00 0.00 0.00 51 1010.6
20260506072337 58 180 0.0 0.0 0.00 0.00 0.00 54 1010.5
20260506071836 58 233 0.0 0.0 0.00 0.00 0.00 53 1010.5
20260506071327 59 98 0.0 0.0 0.00 0.00 0.00 49 1010.4
20260506070834 59 98 0.0 0.0 0.00 0.00 0.00 48 1010.4
20260506070332 59 96 0.0 0.0 0.00 0.00 0.00 49 1010.4
20260506062351 60 82 0.0 0.0 0.00 0.00 0.00 49 1009.9
20260506061830 60 82 0.0 0.0 0.00 0.00 0.00 50 1009.8
20260506061508 60 82 0.0 0.0 0.00 0.00 0.00 49 1008.8
20260506061329 61 80 0.0 0.0 0.00 0.00 0.00 50 1009.7
20260506060834 60 80 0.0 0.0 0.00 0.00 0.00 49 1009.7
20260506060329 59 91 0.0 0.0 0.00 0.00 0.00 55 1009.7
20260506051318 62 89 0.0 0.0 0.00 0.00 0.00 51 1009.6
20260506050832 62 358 0.0 0.0 0.00 0.00 0.00 48 1009.6
20260506050335 62 95 0.0 0.0 0.00 0.00 0.00 46 1009.5
20260506044832 63 39 0.0 0.0 0.00 0.00 0.00 44 1009.4
20260506044555 63 32 0.0 0.0 0.00 0.00 0.00 45 1008.3
20260506044321 64 48 0.0 0.0 0.00 0.00 0.00 42 1009.3
20260506043820 65 96 0.0 0.0 0.00 0.00 0.00 43 1009.2
20260506043320 65 96 0.0 0.0 0.00 0.00 0.00 45 1009.2
20260506043103 65 98 0.0 0.0 0.00 0.00 0.00 45 1008.2
20260506042836 65 76 0.0 1.0 0.00 0.00 0.00 46 1009.2
20260506042318 65 100 0.0 1.0 0.00 0.00 0.00 47 1009.2
20260506041833 66 27 0.0 0.0 0.00 0.00 0.00 50 1009.2
20260506041508 67 226 0.0 0.0 0.00 0.00 0.00 40 1008.2
20260506041331 67 124 0.0 1.0 0.00 0.00 0.00 38 1009.1
20260506040831 68 133 0.0 1.0 0.00 0.00 0.00 38 1009.0
20260506040321 67 143 0.0 0.0 0.00 0.00 0.00 39 1008.8
20260506040101 66 95 0.0 0.0 0.00 0.00 0.00 40 1007.8
20260506035836 67 99 0.0 0.0 0.00 0.00 0.00 40 1008.9
20260506035328 67 34 0.0 0.0 0.00 0.00 0.00 43 1008.8
20260506034822 68 105 0.0 0.0 0.00 0.00 0.00 42 1008.8
20260506034505 67 82 0.0 1.0 0.00 0.00 0.00 44 1007.8
20260506034327 68 83 0.0 1.0 0.00 0.00 0.00 45 1008.7
20260506033840 70 338 0.0 0.0 0.00 0.00 0.00 34 1008.6
20260506033339 71 48 0.0 1.0 0.00 0.00 0.00 35 1008.6
20260506033007 71 47 0.0 1.0 0.00 0.00 0.00 35 1007.6
20260506032829 72 129 0.0 1.0 0.00 0.00 0.00 30 1008.6
20260506032333 73 210 0.0 2.0 0.00 0.00 0.00 32 1008.5
20260506031821 73 232 0.0 1.0 0.00 0.00 0.00 31 1008.5
20260506031607 73 239 0.0 1.0 0.00 0.00 0.00 30 1007.5
20260506031346 73 218 0.0 1.0 0.00 0.00 0.00 30 1008.5
20260506030842 74 201 0.0 1.0 0.00 0.00 0.00 31 1008.4
20260506030352 75 252 0.0 1.0 0.00 0.00 0.00 29 1008.4
20260506030059 75 205 0.0 1.0 0.00 0.00 0.00 28 1007.4
20260506025824 75 158 0.0 2.0 0.00 0.00 0.00 28 1008.4
20260506025320 75 218 0.0 3.0 0.00 0.00 0.00 31 1008.4
20260506024818 76 210 0.0 3.0 0.00 0.00 0.00 28 1008.4
20260506024609 76 206 1.0 3.0 0.00 0.00 0.00 28 1007.5
20260506024322 77 229 0.0 2.0 0.00 0.00 0.00 30 1008.4
20260506023834 78 139 0.0 2.0 0.00 0.00 0.00 29 1008.4
20260506023343 80 203 0.0 3.0 0.00 0.00 0.00 26 1008.4
20260506023113 80 186 0.0 3.0 0.00 0.00 0.00 27 1007.3
20260506022824 81 218 2.0 3.0 0.00 0.00 0.00 26 1008.5
20260506022357 82 229 0.0 1.0 0.00 0.00 0.00 25 1008.5
20260506021832 82 242 0.0 0.0 0.00 0.00 0.00 24 1008.5
20260506021553 81 235 0.0 0.0 0.00 0.00 0.00 24 1007.5
20260506021333 82 226 0.0 0.0 0.00 0.00 0.00 24 1008.5
20260506020848 82 296 0.0 0.0 0.00 0.00 0.00 25 1008.5
20260506020407 81 296 0.0 1.0 0.00 0.00 0.00 25 1008.5
20260506020057 80 297 0.0 1.0 0.00 0.00 0.00 27 1007.6
20260506015835 81 297 0.0 1.0 0.00 0.00 0.00 27 1008.5
20260506015330 80 318 0.0 0.0 0.00 0.00 0.00 26 1008.6
20260506014824 80 326 0.0 1.0 0.00 0.00 0.00 28 1008.7
20260506014608 78 326 0.0 1.0 0.00 0.00 0.00 28 1007.7
20260506014325 78 43 0.0 1.0 0.00 0.00 0.00 26 1008.8
20260506013326 78 16 1.0 3.0 0.00 0.00 0.00 26 1008.7
20260506013057 78 21 0.0 3.0 0.00 0.00 0.00 26 1007.7
20260506012833 78 31 0.0 3.0 0.00 0.00 0.00 26 1008.7
20260506012334 78 16 1.0 3.0 0.00 0.00 0.00 27 1008.7
20260506011831 77 19 2.0 3.0 0.00 0.00 0.00 27 1008.7
20260506011607 76 357 0.0 3.0 0.00 0.00 0.00 26 1007.7
20260506011327 77 359 1.0 3.0 0.00 0.00 0.00 32 1008.8